Flag for France Weather past 2 weeks in Bastia, Corsica, France

Now
66 °F

Passing clouds.


Feels Like: 66 °F
Forecast: 69 / 79 °F
Wind: No wind

Location: Bastia Airport

Current Time: Jul 25, 2014 at 6:32:46 AM

Latest Report: Jul 25, 2014 at 6:00 AM


Visibility: N/A

Pressure: 29.89 "Hg

Humidity: 88%

Dew point: 63 °F

Location of BastiaLocation

Historic Weather in Bastia — Graph

°F

Bastia temperature yesterday

Maximum temperature yesterday: 82 °F (at 2:00 PM)
Minimum temperature yesterday: 66 °F (at 5:00 AM)
Average temperature yesterday: 75 °F

Past Weeks' High & Low Weather Summary

 TemperatureHumidityPressure
High88 °F (Jul 16, 2:30 PM)94% (Jul 12, 5:30 AM)30.09 "Hg (Jul 12, 5:30 AM)
Low59 °F (Jul 13, 5:00 AM)31% (Jul 21, 11:30 AM)29.68 "Hg (Jul 10, 5:00 AM)
Average74 °F66%29.90 "Hg
* Reported Jul 10 5:00 AM — Jul 25 5:30 AM, Bastia, Weather by CustomWeather, © 2014

Note: Actual official high and low records may vary slightly from our data, if they occured in-between our weather recording intervals... More about our weather records

Advertising

Bastia weather history for previous 24 hours

 ConditionsComfort  
Time TempWeatherWind HumidityBarometerVisibility
5:30 AM
Jul 25
66 °FPassing clouds.5 mph88%29.89 "HgN/A
5:00 AM66 °FPassing clouds.2 mph94%29.89 "HgN/A
4:30 AM66 °FPassing clouds.2 mph94%29.86 "HgN/A
4:00 AM66 °FPassing clouds.3 mph88%29.89 "HgN/A
3:30 AM66 °FPassing clouds.No wind88%29.89 "HgN/A
3:00 AM68 °FMild.3 mph88%29.89 "HgN/A
2:30 AM68 °FMild.2 mph88%29.89 "HgN/A
2:00 AM68 °FPassing clouds.2 mph88%29.89 "HgN/A
1:30 AM70 °FPassing clouds.3 mph88%29.89 "HgN/A
1:00 AM72 °FOvercast.1 mph83%29.89 "HgN/A
12:00 AM70 °FPassing clouds.2 mph88%29.89 "HgN/A
11:30 PM
Jul 24
72 °FPassing clouds.2 mph83%29.89 "HgN/A
11:00 PM73 °FPassing clouds.No wind78%29.92 "HgN/A
10:23 PM73 °FPassing clouds.1 mph78%29.89 "HgN/A
10:00 PM73 °FPassing clouds.3 mph78%29.89 "HgN/A
9:30 PMN/APartly sunny.3 mphN/A29.89 "HgN/A
9:00 PM73 °FPartly sunny.No wind78%29.86 "HgN/A
8:30 PM75 °FScattered clouds.No wind74%29.86 "HgN/A
8:00 PM75 °FPartly sunny.5 mph74%29.86 "HgN/A
7:30 PM77 °FPartly sunny.6 mph74%29.86 "HgN/A
7:00 PM77 °FPartly sunny.6 mph74%29.86 "HgN/A
6:30 PM77 °FPartly sunny.6 mph69%29.86 "HgN/A
6:00 PM77 °FPartly sunny.6 mph69%29.86 "HgN/A
5:30 PM79 °FPartly sunny.7 mph65%29.86 "HgN/A
5:00 PM79 °FPartly sunny.7 mph65%29.86 "HgN/A
4:30 PM79 °FPartly sunny.7 mph70%29.86 "HgN/A
4:00 PM79 °FPartly sunny.9 mph65%29.86 "HgN/A
3:30 PM79 °FPartly sunny.8 mph65%29.86 "HgN/A
3:00 PM81 °FPartly sunny.10 mph62%29.86 "HgN/A
2:30 PM82 °FPartly sunny.10 mph58%29.86 "HgN/A
2:00 PM82 °FPartly sunny.8 mph58%29.86 "HgN/A
1:30 PM81 °FBroken clouds.9 mph62%29.86 "HgN/A
1:00 PM81 °FBroken clouds.7 mph62%29.86 "HgN/A
12:30 PM79 °FBroken clouds.6 mph61%29.86 "HgN/A
12:00 PM77 °FSprinkles. Broken clouds.8 mph69%29.86 "HgN/A
11:30 AM77 °FBroken clouds.7 mph69%29.86 "HgN/A
11:00 AM79 °FBroken clouds.7 mph61%29.86 "HgN/A
10:30 AM81 °FPassing clouds.7 mph62%29.86 "HgN/A
10:00 AM81 °FPassing clouds.3 mph62%29.83 "HgN/A
9:30 AM79 °FPassing clouds.3 mph61%29.83 "HgN/A
9:00 AM77 °FPassing clouds.3 mph61%29.83 "HgN/A
8:30 AM75 °FPassing clouds.6 mph65%29.83 "HgN/A
8:00 AM73 °FPassing clouds.6 mph69%29.83 "HgN/A
7:30 AM72 °FPassing clouds.8 mph69%29.83 "HgN/A
7:00 AM72 °FPassing clouds.7 mph69%29.83 "HgN/A
6:30 AM70 °FPassing clouds.8 mph73%29.83 "HgN/A
6:00 AM70 °FPassing clouds.No wind73%29.83 "HgN/A
Weather by CustomWeather, © 2014

See weather overviewHow to use our weather pages